Weather in Novyy Bor

Russia / Komi Republic     66°43′18″N   52°18′23″E
temp.,
°C
wind,
m/s
gust,
m/s
humid.,
%
clouds,
%
prec.,
mm/h
press.,
hPa
HPBL,
m
26 february, fri
fri2600:00−20s6119163 0.0 1015205
03:00−20s6129266 0.0 1015253
06:00−20s71293100 0.0 1012295
09:00−19s8139195 0.0 1011435
12:00−18s91390100 0.0 1011515
15:00−17s81390100 0.0 1011515
18:00−18sse71393100 0.0 1010334
21:00−18sse61293100 0.1 1011274
27 february, sat
sat2700:00−19s61193100 0.0 1011305
03:00−21s599599 0.0 1012173
06:00−23s599576 0.0 1012147
09:00−22s6109373 0.0 1013257
12:00−19s689093 0.0 1012330
15:00−18s699297 0.0 1013278
18:00−19s589498 0.0 1012136
21:00−17s599496 0.1 1012266
28 february, sun
sun2800:00−16ssw589598 0.4 1011337
03:00−16ssw489599 0.7 1011254
06:00−17ssw459497 0.1 101085
09:00−15ssw579598 0.3 1010252
12:00−13sw4693100 0.3 1010293
15:00−12sw369399 0.5 1011256
18:00−13sw449597 0.2 101181
21:00−14sw449491 0.3 101144
1 march, mon
mon100:00−13sw469488 0.1 101099
03:00−12sw469293 0.1 1009100
06:00−9ssw51094100 0.4 1006304
09:00−7sw71294100 1.3 1003580
12:00−6ssw71393100 1.1 999588
15:00−5sw81494100 3.3 995693
18:00−3sw81593100 1.6 990603
21:00−1sw71396100 2.1 988500
2 march, tue
tue200:00−1wnw71290100 1.7 986533
03:00−5wsw579180 1.7 985121
06:00−4ssw499058 0.0 984214
09:00−2s589478 0.2 983398
12:00−1s349298 0.1 984353
15:00−2nne019798 0.3 98743
18:00−6nnw8129597 0.5 990303
21:00−14nnw9129498 1.1 994434